Вернуться в каталог

COSMOS 700

АктивенНавигацияPO
NORAD 7593·PAYLOAD·🇷🇺 Russia

Запущен Dec 26, 1974 с Plesetsk Cosmodrome

Loading…

Ближайшие Пролёты (ближайшие 24 часа)

TLE

СвежийSource: Space-Track

Эпоха: Sep 14, 2026, 04:10 UTC

1 07593U 74105A   26257.17415720  .00000061  00000-0  46401-4 0  9996
2 07593  82.9558 341.9317 0025582  54.7980 328.2714 13.76993202597534

Отслеживайте COSMOS 700 в реальном времени с AllMySat

Download on the App Store